Wind_Speed
10 10 10 10 10 10 10 11 10 10 10 10 10 9 9 9 9 9 9 8 8 9 9 8 8 8 8 8 8 8 8 8 8 8 8 7 6 6 6 7 7 7 6 6 6 6 7 7 7 7 8 7 7 7 6 6 5 7 8 9 10 7 7 11 12 13 16 17 18 18 15 14 16 15 11 13 15 15 17 15 16 16 16 17 17 18 18 17
11 11 11 11 11 11 11 11 11 12 11 11 11 10 10 10 10 10 10 10 9 9 9 9 9 10 10 10 10 10 10 10 10 9 8 8 7 7 8 8 8 8 8 7 7 7 8 8 8 8 8 8 8 7 8 7 8 9 8 11 10 7 10 14 16 18 19 17 17 18 16 12 14 16 12 11 14 15 16 14 14 16 15 16 16 18 17 16
12 12 12 12 12 12 12 12 12 12 12 12 12 11 11 11 11 11 11 11 11 11 11 11 11 11 11 12 12 12 12 12 12 10 9 9 8 8 9 10 10 10 9 9 8 8 9 10 10 10 10 10 9 9 9 9 9 10 10 12 11 10 13 15 19 19 18 17 16 18 18 15 13 16 14 11 14 14 13 11 13 15 14 15 16 16 14 13
14 14 13 14 13 14 14 14 14 13 13 13 13 12 12 12 12 12 12 12 12 12 12 12 12 12 13 13 13 13 14 14 12 10 10 10 9 10 12 12 11 11 11 10 10 10 10 10 10 11 11 12 13 12 11 10 10 12 14 14 12 13 15 17 20 20 19 19 18 19 21 19 16 18 16 14 15 13 12 12 13 13 14 16 14 12 13 13
15 15 15 15 15 15 15 15 15 15 15 14 14 14 13 13 13 13 13 13 13 13 13 13 14 14 14 14 14 14 15 14 11 9 9 9 10 13 14 13 13 13 13 12 11 11 11 11 11 12 13 12 14 14 13 12 11 15 16 16 16 17 18 19 21 20 20 21 20 20 22 21 20 21 19 18 17 12 12 15 15 14 16 17 14 11 12 13
17 17 16 17 16 17 17 17 17 17 17 16 16 15 15 14 14 14 14 14 14 14 14 14 14 15 15 15 15 15 15 14 11 11 12 12 14 15 15 14 15 14 14 14 13 13 12 13 12 12 14 13 13 14 15 15 14 17 18 16 18 20 21 21 22 21 21 23 22 22 23 22 23 23 21 23 18 10 12 18 18 17 18 18 17 14 13 14
19 18 18 18 18 18 18 18 18 18 18 18 18 17 16 16 16 16 15 15 15 15 16 15 16 16 16 17 16 16 16 14 13 14 16 15 15 16 16 16 16 16 16 16 15 15 14 15 14 14 16 14 12 12 14 19 19 20 20 17 18 21 22 23 24 23 23 24 23 24 24 23 24 24 24 23 17 11 13 18 19 19 19 20 19 18 18 18
20 20 20 20 20 20 20 20 20 20 20 20 20 19 19 18 18 18 17 17 17 17 17 17 17 17 17 18 18 19 18 15 13 16 16 16 16 17 18 17 17 17 17 18 17 17 17 16 16 16 17 15 14 13 15 21 23 23 21 18 20 22 22 23 25 24 24 25 25 25 25 24 24 26 27 22 16 14 15 18 20 18 19 21 20 20 21 21
21 22 22 21 21 21 21 22 21 21 21 21 22 22 22 21 20 20 20 19 19 19 18 18 19 19 19 19 20 21 18 15 15 16 17 17 17 17 18 18 18 18 18 19 19 19 18 18 19 19 19 18 18 18 19 23 24 23 21 21 24 24 22 23 26 25 25 26 27 28 27 25 24 28 29 18 12 13 14 18 20 19 20 21 22 22 22 24
22 23 23 23 23 23 23 23 23 23 23 23 23 23 24 23 23 22 22 22 21 21 21 21 20 21 21 20 22 23 17 16 17 17 17 18 18 18 19 19 19 19 20 20 19 20 20 20 21 21 21 21 22 21 21 24 24 23 23 25 27 26 24 24 27 28 27 28 28 28 28 26 25 31 28 15 11 14 15 18 20 22 21 21 24 24 24 25
23 23 23 24 24 24 24 24 25 24 24 25 25 25 26 25 25 25 25 25 24 24 23 23 23 24 24 23 25 24 19 18 19 19 19 19 19 20 20 20 20 20 20 21 21 20 21 21 21 22 22 23 23 22 23 25 24 23 25 28 28 28 27 28 30 29 28 29 28 28 29 28 29 33 26 16 16 17 17 19 21 23 22 22 25 26 27 27
24 24 24 24 24 24 25 25 26 26 26 25 26 26 27 27 27 27 27 27 27 26 26 26 26 26 26 27 26 25 22 21 21 21 21 20 20 21 21 22 22 22 22 22 22 21 21 22 23 23 23 24 24 23 25 25 25 25 27 30 31 31 31 29 29 27 25 26 26 26 29 30 32 32 26 21 21 20 20 21 21 23 22 23 24 27 29 29
26 25 25 25 25 25 25 26 26 26 26 26 27 27 28 29 29 29 28 28 29 29 29 28 29 29 30 30 27 26 26 24 24 23 22 21 22 22 22 23 23 23 23 23 23 23 22 24 24 24 24 25 25 25 27 27 28 29 28 30 33 33 32 28 26 25 23 24 23 22 28 32 31 31 28 25 26 25 24 24 23 23 24 24 25 27 29 30
28 27 27 27 26 26 26 26 26 27 27 27 27 27 28 29 29 30 30 30 30 30 31 31 31 31 33 32 28 28 28 26 26 24 23 23 24 24 25 25 25 25 25 24 25 24 24 25 24 25 24 25 26 26 28 28 29 31 29 29 31 32 32 29 26 24 22 25 24 21 30 34 30 30 29 26 27 28 27 26 26 27 27 26 26 27 29 30
29 29 29 28 28 28 28 28 28 28 28 28 27 28 28 29 30 30 30 31 31 31 32 32 33 33 36 35 30 30 30 29 28 26 25 26 26 26 27 27 26 26 27 26 26 26 26 25 25 24 24 25 27 28 30 29 30 30 28 28 29 29 30 29 27 27 24 24 23 22 29 36 32 28 29 27 27 28 29 30 29 30 31 29 27 27 29 30
31 31 30 30 29 29 29 29 30 29 29 29 29 29 29 30 30 30 31 32 32 32 32 33 33 33 36 35 31 30 29 28 27 26 25 27 28 28 28 28 29 28 28 27 26 26 27 26 26 26 26 27 28 30 29 27 31 30 26 27 28 28 27 25 26 28 25 25 26 27 31 37 36 30 30 30 30 31 34 35 32 31 33 32 30 30 31 30
33 33 32 32 31 31 31 31 31 30 30 30 30 30 31 32 32 32 32 32 33 34 33 34 34 35 37 34 32 30 29 28 27 26 26 26 28 29 29 28 28 28 28 28 27 28 28 28 29 28 28 29 29 30 23 22 31 31 24 25 25 26 24 23 27 26 24 27 28 29 34 42 42 36 31 31 34 37 38 38 35 32 33 33 31 32 34 34
33 34 34 33 33 32 33 33 32 31 30 30 31 31 32 33 33 34 34 35 35 35 36 36 35 36 37 33 30 28 26 26 26 25 25 26 28 29 30 31 31 31 31 31 31 31 30 31 31 31 31 32 32 31 27 27 34 32 27 26 26 27 27 26 30 28 27 31 30 29 37 45 46 40 34 31 33 39 40 40 39 35 33 33 32 33 35 34
32 33 34 34 34 34 35 35 34 33 32 31 32 32 32 33 34 36 37 37 38 37 37 37 35 36 35 32 30 29 28 27 27 26 25 26 28 29 31 32 34 35 34 35 35 34 33 33 33 33 35 36 36 36 37 37 36 33 32 31 30 31 32 35 37 36 34 35 35 35 41 46 45 41 38 33 34 38 41 42 42 38 35 34 35 34 31 30
31 32 32 33 33 34 35 35 35 35 34 33 33 33 33 33 35 36 38 39 39 38 38 38 39 39 38 38 36 33 33 31 31 30 28 29 31 32 33 32 34 34 33 34 34 33 34 36 38 39 39 37 36 37 38 37 33 31 31 31 32 33 37 43 42 39 36 35 39 40 41 43 43 43 41 38 38 40 41 42 42 41 39 38 37 33 28 28
31 31 31 32 32 33 34 35 35 35 35 34 34 34 35 35 36 37 39 41 40 39 39 40 41 43 41 41 39 36 35 34 33 32 31 31 32 34 36 36 38 38 37 35 35 36 38 42 44 43 40 38 38 37 33 31 30 29 29 31 34 37 43 47 42 39 38 37 40 40 40 42 44 45 43 43 44 44 43 41 41 40 39 38 35 31 28 28
32 32 32 31 31 32 33 33 33 34 34 34 33 34 35 35 36 38 41 45 45 42 42 41 42 44 42 40 39 37 37 38 37 36 33 32 34 36 38 39 41 42 41 37 37 40 43 48 50 44 40 40 39 38 35 34 35 34 35 36 38 42 46 46 42 38 37 38 39 38 39 43 46 47 46 47 49 48 45 41 40 39 37 35 31 29 28 28
34 34 33 32 32 32 32 32 32 32 32 33 33 33 34 34 36 38 40 47 50 45 44 45 45 45 42 41 40 37 40 41 39 39 33 32 38 38 39 42 43 42 41 40 42 45 46 47 47 41 39 40 40 39 36 37 40 41 40 39 42 44 42 42 42 37 36 37 37 38 42 48 50 50 50 49 48 45 41 37 37 36 35 32 29 28 28 29
36 35 34 34 33 33 34 33 32 32 32 31 31 31 33 34 34 37 40 47 54 51 47 46 47 48 44 41 39 37 41 42 41 42 36 35 39 39 41 44 44 43 43 43 43 47 50 47 43 41 41 42 43 41 36 37 44 46 41 38 43 46 43 42 41 36 36 37 38 40 43 48 48 47 50 46 42 40 36 35 37 35 33 30 28 28 26 26
36 36 36 36 35 35 36 35 34 33 33 32 31 31 31 32 32 35 39 44 54 55 50 48 48 48 45 42 41 40 42 44 43 42 39 38 40 41 43 43 43 46 45 43 43 47 50 45 41 42 43 43 44 44 39 39 46 48 43 40 43 44 42 40 37 33 32 34 36 30 24 30 36 38 44 43 39 40 38 38 39 36 32 30 27 23 20 23
36 36 36 35 35 36 36 36 35 34 34 32 32 32 31 31 31 32 35 42 52 52 45 43 41 39 40 41 40 37 40 46 46 43 42 42 41 42 45 45 47 47 45 42 41 44 45 42 42 42 42 42 42 43 41 39 44 47 44 41 41 40 38 36 34 31 26 25 25 14 9 23 39 43 44 43 41 43 43 42 42 38 33 26 20 19 21 23
35 34 34 34 33 33 34 34 34 33 33 32 32 32 31 31 31 30 30 32 35 35 29 26 26 30 34 34 33 32 36 42 42 40 41 41 40 43 46 49 50 48 47 40 37 42 41 39 40 41 41 41 41 42 40 36 38 44 43 38 36 34 33 32 32 31 30 31 29 20 15 24 43 52 46 43 40 40 43 43 42 38 29 21 18 21 21 15
34 33 33 33 32 32 33 33 33 33 31 31 31 30 31 31 30 28 22 14 11 14 14 12 14 19 21 21 23 27 31 35 34 31 31 30 34 39 42 46 48 49 46 39 41 46 44 41 41 41 39 39 41 41 38 34 35 40 39 35 32 29 30 31 32 32 31 31 25 21 18 16 36 52 41 35 35 37 43 42 37 32 25 23 23 21 14 9
34 35 35 34 33 33 33 33 33 33 31 31 29 28 29 28 28 25 17 11 10 14 17 16 16 14 13 15 19 22 25 27 28 27 26 25 28 33 37 40 42 44 42 40 46 48 43 43 44 43 40 39 42 40 37 36 36 38 37 35 31 28 29 29 30 32 27 24 19 18 18 12 30 55 39 26 31 36 40 34 27 27 25 26 26 22 17 13
35 36 36 37 36 34 35 34 32 33 32 31 29 30 28 25 25 19 13 16 16 17 20 21 22 19 16 18 19 20 24 25 29 30 29 29 30 32 35 36 35 37 38 40 44 44 43 45 44 42 41 40 40 38 37 37 36 37 36 34 31 28 30 27 28 27 16 19 25 25 28 20 20 37 26 21 29 31 30 26 25 28 26 26 28 29 28 25
38 38 38 39 37 36 37 36 34 34 32 31 30 28 26 25 22 14 13 23 25 25 28 27 27 27 25 24 23 25 27 29 31 32 31 32 32 35 37 36 33 33 35 39 43 43 43 44 44 43 42 40 39 39 39 39 38 37 34 32 28 22 21 17 16 13 4 13 24 20 24 26 23 22 15 15 20 17 18 20 21 26 26 28 33 35 35 32
41 41 41 41 38 36 37 36 36 34 32 32 29 27 25 19 20 27 29 27 18 17 25 27 28 28 25 26 27 29 30 31 33 32 33 33 34 39 39 38 37 31 30 36 39 40 43 45 43 41 41 39 39 39 40 39 39 39 37 31 18 8 8 6 3 4 7 19 27 20 16 25 39 43 33 27 23 19 21 19 17 22 28 34 37 35 33 31
41 42 43 44 42 38 37 36 35 33 33 33 27 27 23 11 21 43 43 31 19 15 19 20 22 23 22 25 28 29 29 30 32 31 32 35 37 41 41 41 41 34 30 32 30 28 31 37 38 37 38 38 38 40 40 40 40 40 40 33 18 6 2 4 4 4 10 22 29 26 19 21 33 41 36 35 34 32 31 22 19 21 30 36 37 34 32 30
41 41 42 44 43 41 40 38 35 34 34 33 28 24 19 18 35 45 34 28 27 27 29 29 27 25 25 28 29 29 29 30 32 32 33 37 40 43 44 44 43 41 39 36 30 23 18 27 37 35 32 35 37 36 34 37 39 41 40 33 27 21 9 4 6 6 7 14 20 15 13 13 20 23 26 29 29 27 27 24 25 29 34 34 33 33 31 27
43 43 41 41 39 38 39 37 34 34 34 32 27 22 25 35 46 41 29 28 26 27 34 37 35 33 32 33 32 32 31 30 32 33 35 40 42 43 45 45 43 43 40 34 31 29 24 34 45 38 35 39 39 34 30 30 34 39 34 27 31 34 27 19 21 23 13 11 15 14 15 28 38 41 46 42 36 29 23 26 32 33 31 30 32 33 26 19
44 45 45 45 42 37 34 32 31 32 34 34 27 29 39 48 44 31 24 24 18 18 26 31 34 35 33 33 34 35 33 32 35 35 37 41 43 45 46 45 43 42 41 37 34 29 25 34 45 39 35 38 36 33 32 29 30 31 26 27 33 37 34 26 23 27 17 8 20 23 23 39 48 50 49 38 34 35 28 27 29 28 28 30 30 26 19 17
43 45 48 50 48 44 40 38 37 34 35 37 35 36 45 53 49 39 30 25 19 12 16 23 28 30 29 29 31 33 32 33 37 38 39 40 42 47 47 46 45 44 44 42 40 37 32 35 45 42 35 34 31 29 31 34 35 31 27 30 31 27 29 24 9 9 9 6 18 28 29 36 36 33 30 17 17 26 26 25 25 25 25 24 21 19 18 20
44 45 48 48 48 47 46 45 45 42 39 40 43 45 49 52 52 49 44 42 38 30 27 28 27 26 26 26 28 29 27 31 37 38 40 40 42 47 45 43 46 46 45 43 42 44 40 34 38 46 42 36 33 29 29 34 34 34 37 37 29 18 17 20 10 4 7 4 9 24 32 37 41 43 41 33 27 23 20 19 20 20 18 15 17 20 22 24
44 45 48 48 46 45 43 42 41 41 42 44 47 49 52 53 52 48 45 46 45 41 37 36 34 31 30 31 31 28 26 29 32 34 37 38 39 43 42 39 42 42 41 42 42 44 44 32 28 40 44 35 33 34 34 35 33 35 39 38 37 28 16 18 19 13 10 6 8 17 21 33 47 46 40 37 31 23 17 15 14 13 15 17 26 32 31 29
43 43 48 49 47 44 43 41 39 38 44 49 50 51 53 52 51 49 45 43 42 40 37 36 36 35 36 37 36 33 31 30 29 31 35 36 36 38 37 34 34 34 34 35 36 39 43 37 28 33 38 35 38 42 39 40 38 38 41 41 41 37 25 18 20 26 22 9 6 7 9 35 51 33 23 27 23 19 16 12 13 14 16 25 38 43 39 32
42 42 47 48 46 43 41 40 40 40 44 48 50 52 52 49 50 50 47 45 44 44 43 41 39 37 37 37 37 37 34 31 31 31 34 37 36 33 31 29 29 29 28 30 33 35 37 39 35 34 37 42 51 52 48 49 46 43 44 47 47 43 34 19 13 30 34 18 13 10 8 38 55 32 26 31 23 23 23 19 25 27 28 35 41 43 40 35
42 44 48 48 46 43 40 41 44 44 48 52 53 52 49 47 48 48 47 47 47 47 47 47 47 46 45 44 44 43 39 36 34 32 32 34 34 31 30 29 28 27 27 30 34 36 36 37 36 36 41 48 52 51 48 49 49 47 45 46 47 46 43 30 15 22 29 21 25 23 13 39 63 48 40 39 29 28 30 31 39 43 43 46 45 46 45 43
45 46 48 48 47 43 39 39 41 44 50 53 54 52 49 48 48 47 46 47 48 47 47 47 47 48 48 47 45 44 42 40 42 43 40 36 34 33 32 31 29 25 24 28 29 31 34 33 32 34 39 44 48 47 48 47 43 40 41 42 44 44 45 43 34 32 29 20 24 20 11 36 65 60 52 50 42 39 42 46 51 52 52 51 47 49 50 49
47 47 47 47 47 44 42 42 42 46 51 52 53 54 54 54 53 52 54 53 50 48 48 48 48 47 47 46 44 46 44 40 43 49 48 45 42 42 40 38 33 23 20 24 23 21 24 27 26 24 20 23 30 33 39 42 35 30 33 36 40 43 42 40 40 39 29 25 31 22 12 34 60 59 54 53 48 48 51 52 51 50 50 46 46 51 54 53
47 47 47 48 47 47 50 50 49 50 51 50 52 54 53 53 53 53 56 56 53 51 52 53 52 49 48 46 46 50 50 45 46 49 49 48 47 48 47 45 42 36 30 28 25 20 20 22 24 20 13 10 13 15 21 25 22 21 26 29 32 36 36 37 40 33 22 29 42 34 25 43 60 59 57 58 56 55 56 55 53 52 51 49 52 56 57 56
44 44 45 46 46 48 52 53 50 51 51 50 51 51 50 53 54 54 53 52 52 53 54 54 52 49 49 50 51 54 55 52 49 48 50 50 48 48 46 44 45 45 43 40 35 30 26 24 26 28 24 19 21 26 30 32 31 32 35 38 36 31 31 36 38 33 29 34 42 44 43 51 57 61 65 68 67 66 65 64 62 59 57 56 57 56 56 55
42 42 42 42 41 41 45 50 51 52 52 52 54 55 56 58 58 57 55 55 55 54 52 52 51 50 51 52 52 53 55 55 51 49 50 51 49 48 46 44 43 42 42 44 42 39 35 33 34 36 36 35 38 44 46 47 49 50 50 52 50 43 39 38 38 40 41 35 34 43 49 50 55 62 68 71 72 71 69 66 64 61 60 59 56 53 54 54
43 43 42 40 39 38 40 44 48 49 50 51 52 54 55 56 56 56 57 57 56 53 51 51 52 53 54 53 53 53 51 49 48 48 49 49 49 49 48 47 46 43 43 44 43 42 42 43 45 48 50 50 49 48 49 50 54 56 56 57 58 57 54 49 47 52 52 44 40 45 51 56 62 64 65 70 74 72 69 68 67 67 65 62 58 57 57 56
42 42 41 40 41 40 41 42 42 43 46 49 52 53 52 52 54 56 55 54 52 50 50 52 53 53 54 52 53 56 53 47 45 47 48 50 51 51 50 50 51 51 47 43 43 43 45 48 49 50 54 53 49 48 51 54 56 59 60 58 57 58 59 58 58 60 58 55 57 60 61 66 69 68 70 73 73 72 72 70 67 64 63 63 63 61 60 59
41 40 38 40 44 44 44 43 41 40 42 45 49 51 51 52 54 54 53 52 52 50 50 53 55 54 55 55 54 57 56 54 54 56 56 56 55 53 53 53 54 54 48 43 42 42 44 47 46 44 46 48 49 51 53 55 58 59 59 58 56 56 59 61 62 61 58 59 62 63 62 66 70 71 73 73 71 70 68 61 56 54 53 55 60 62 61 60
39 40 38 40 45 48 49 49 46 45 44 44 46 49 49 51 52 51 52 54 54 54 54 56 58 56 56 56 56 59 60 60 62 63 62 61 58 54 55 56 54 52 50 48 47 46 45 45 43 39 38 41 47 49 51 55 58 59 59 57 57 59 63 64 63 62 62 63 62 57 56 61 66 67 68 69 66 63 61 56 55 54 52 54 59 62 59 55
35 38 37 38 43 47 49 51 50 49 50 49 48 46 43 44 46 45 49 53 53 54 55 55 56 56 57 58 59 60 61 61 64 65 64 62 59 55 56 57 55 54 55 55 52 50 47 44 43 39 34 38 45 48 52 50 39 40 51 57 59 63 65 65 64 62 62 63 62 59 59 60 58 57 61 63 60 60 61 59 59 60 58 57 60 60 55 47
Wind_Direction
277 279 282 285 289 291 292 294 296 297 298 300 301 302 303 304 305 305 307 307 307 307 307 307 305 304 304 301 303 303 303 307 306 312 319 315 313 317 325 330 332 332 336 342 344 348 351 353 355 353 355 353 347 346 339 333 312 294 288 280 289 300 280 273 267 268 281 284 283 293 301 298 296 301 296 282 283 282 282 282 279 277 273 274 277 277 278 276
271 272 275 277 279 282 284 287 289 291 292 294 295 296 297 297 296 296 297 297 296 296 296 297 296 295 294 293 292 290 291 291 291 299 304 298 293 298 311 314 315 317 317 321 326 331 331 332 334 334 336 335 334 328 327 329 311 304 291 283 301 299 265 264 265 272 285 290 289 297 304 302 296 302 308 294 288 285 288 294 284 276 272 271 271 276 282 280
269 270 271 272 274 276 277 278 280 283 285 287 288 289 290 290 292 291 292 292 292 291 290 290 289 289 288 287 286 285 285 284 289 296 290 284 279 284 300 302 300 303 304 307 311 315 317 319 323 324 324 321 318 314 314 317 308 300 285 289 305 288 269 273 278 284 292 296 296 297 301 305 298 298 307 303 291 293 298 292 279 274 272 271 271 279 289 286
268 269 269 271 272 273 274 275 275 276 278 280 281 282 282 283 284 285 286 286 286 287 287 287 286 286 285 285 285 285 284 285 292 292 283 280 272 277 292 294 290 291 293 295 297 301 304 307 310 310 311 312 310 307 307 307 302 294 290 299 302 283 277 278 283 291 296 296 296 296 297 301 299 294 301 299 293 301 300 283 283 282 273 276 281 286 291 290
268 268 269 270 270 271 273 274 275 276 276 276 276 277 277 277 277 278 280 281 282 282 282 283 283 284 283 283 283 284 286 290 296 291 282 278 273 280 287 286 282 283 283 285 288 289 291 293 296 298 298 304 304 302 304 300 294 292 294 300 298 288 285 286 288 293 296 293 291 292 292 296 296 293 296 292 290 305 299 288 292 291 280 279 282 283 286 292
269 269 269 269 270 270 271 273 274 275 276 276 275 275 274 274 274 274 274 275 277 278 278 278 279 280 281 280 280 281 281 285 295 292 284 280 278 281 282 280 278 276 277 279 280 280 281 283 283 285 286 289 294 300 301 294 294 294 293 297 296 290 290 294 292 294 295 291 290 289 287 291 291 291 293 288 289 301 294 290 291 291 290 284 280 280 284 290
269 270 269 270 270 270 271 272 273 274 276 276 276 276 274 274 273 273 272 273 274 274 275 275 275 276 276 277 277 276 275 279 288 285 281 281 279 278 278 277 275 273 273 273 274 274 274 275 278 279 279 280 286 291 284 281 289 291 290 294 288 282 288 293 291 293 293 290 289 287 286 288 289 290 287 285 293 295 281 280 282 284 287 286 284 284 287 290
270 270 270 270 270 270 271 271 272 273 274 275 276 276 276 275 274 273 272 272 273 273 273 273 274 273 273 273 273 272 274 279 281 277 278 280 277 275 275 274 274 272 271 271 270 270 271 272 274 273 273 276 275 270 264 271 282 285 289 292 284 282 289 290 288 291 290 288 287 285 286 288 288 288 283 286 297 289 272 270 275 277 279 283 286 286 287 288
270 270 271 271 270 271 271 271 272 272 273 274 275 276 276 277 276 275 274 272 272 272 272 273 273 273 273 273 272 271 275 280 276 274 277 278 277 275 274 274 273 271 270 269 268 268 269 269 269 270 272 273 270 268 268 271 277 284 288 288 286 288 290 288 288 290 288 286 285 285 285 285 286 284 283 293 298 282 273 272 275 276 276 281 285 285 285 285
267 269 270 270 271 272 271 272 272 272 273 273 274 275 275 276 276 276 276 274 272 271 271 271 271 272 272 272 272 271 277 281 276 274 275 276 278 277 276 275 273 272 271 270 269 269 270 269 270 274 275 273 271 271 272 272 277 285 286 284 286 288 289 287 285 288 288 286 285 284 283 284 281 276 281 301 295 276 270 271 273 275 279 283 285 286 285 284
264 266 267 269 270 271 272 273 272 273 273 273 274 274 275 275 275 276 276 276 275 274 272 271 271 271 270 270 268 272 278 276 273 273 273 275 277 276 276 274 273 273 272 272 272 271 273 273 272 273 274 274 274 274 275 276 281 285 285 285 287 287 288 286 285 288 289 286 285 285 283 282 275 272 285 303 287 271 261 263 271 277 283 284 284 286 285 285
261 262 263 265 266 268 270 271 272 273 273 273 273 274 275 275 275 275 275 276 276 275 274 274 273 272 271 268 266 271 274 272 272 272 272 274 274 274 274 273 274 274 273 274 273 274 275 274 273 270 270 271 274 276 278 283 285 286 288 290 292 291 290 291 292 293 289 285 285 285 281 278 276 278 289 292 281 277 271 272 277 281 285 284 283 284 285 286
263 262 262 262 263 265 266 268 270 271 272 273 274 274 275 275 276 276 275 276 276 277 276 276 275 274 272 269 268 269 269 268 270 270 271 273 272 272 271 272 273 273 273 273 275 276 274 272 272 270 270 271 273 274 277 283 284 286 290 292 294 294 295 301 302 297 293 289 287 282 276 278 285 288 290 286 281 282 281 282 282 282 285 286 285 284 285 286
266 266 265 265 264 264 265 266 267 269 270 271 272 274 274 275 276 276 277 276 276 277 277 277 277 276 275 271 269 269 269 269 268 268 271 272 271 271 271 272 272 271 272 273 275 275 273 272 270 269 270 270 274 276 277 279 282 289 291 289 292 293 299 310 307 299 293 289 288 276 272 283 295 295 290 285 281 282 283 284 286 286 285 285 286 285 286 288
267 267 268 268 267 267 267 267 267 268 269 269 271 273 274 275 275 277 277 277 277 277 277 277 277 278 277 274 271 270 271 271 270 271 271 270 270 269 270 271 271 271 272 273 274 272 271 270 268 269 270 272 276 275 276 279 283 289 286 285 291 290 299 310 305 301 295 286 281 268 272 286 297 300 295 287 283 284 284 285 287 288 287 286 286 286 287 289
267 267 268 268 269 269 269 268 268 268 268 269 270 271 273 273 274 275 276 277 277 277 277 277 276 277 277 276 273 272 272 273 274 272 269 268 268 268 269 270 271 271 272 271 270 269 267 267 267 268 270 273 275 277 281 283 284 285 277 280 291 289 295 302 296 296 291 278 272 269 276 285 290 297 299 293 288 285 284 285 286 288 288 288 290 291 290 291
266 267 267 268 269 269 270 269 269 269 269 269 269 269 271 272 273 273 274 275 275 276 276 276 276 275 274 274 275 274 275 276 274 271 268 267 267 267 268 268 269 269 269 267 266 266 266 267 267 267 270 271 272 275 275 272 279 284 277 277 288 290 290 290 289 291 286 279 277 274 277 285 290 294 296 293 290 287 286 285 286 286 286 289 293 294 293 294
268 268 268 268 268 269 270 270 270 271 270 271 270 269 269 270 271 272 272 272 272 273 273 273 274 274 274 275 276 277 276 276 274 272 270 269 268 268 268 267 267 267 267 266 265 265 266 267 266 266 267 266 266 267 260 266 281 286 283 279 281 283 280 280 282 282 283 283 278 271 274 284 291 292 292 290 288 288 287 287 287 287 286 289 291 292 293 295
271 270 270 270 270 270 270 270 271 271 272 272 272 272 271 271 270 270 270 269 269 270 271 274 273 272 274 276 274 275 275 275 275 273 272 272 270 270 269 268 267 266 265 265 264 265 266 266 264 263 263 263 266 270 271 280 289 286 284 281 277 276 275 279 282 281 284 281 275 273 274 282 289 290 291 289 286 286 287 288 290 292 293 294 293 292 291 293
274 273 273 273 272 272 272 272 272 272 272 272 272 273 273 273 273 271 270 268 268 268 269 271 271 271 272 273 273 273 274 274 273 272 270 269 269 269 269 268 266 263 261 263 267 269 269 267 263 261 262 265 272 278 281 287 289 286 283 278 275 275 277 284 287 286 287 279 277 280 279 281 287 289 291 290 288 285 284 287 290 294 297 296 295 293 292 294
273 273 274 274 275 274 274 274 274 274 274 274 273 273 274 274 275 275 274 272 269 268 267 266 268 269 268 270 272 272 273 272 270 267 265 266 267 267 267 266 264 263 262 265 271 273 268 265 264 264 267 274 278 279 278 277 278 278 275 273 273 275 280 287 289 288 289 281 279 283 279 279 286 289 290 290 287 285 286 288 290 293 294 294 295 295 297 297
272 273 273 274 275 276 276 277 277 276 277 277 276 275 276 275 275 276 277 275 272 270 269 267 266 266 267 269 270 271 271 270 267 265 264 266 267 266 267 266 265 266 267 267 269 269 264 263 266 269 275 279 279 277 273 270 269 267 266 268 270 276 283 287 288 288 288 282 281 284 279 278 285 288 288 287 286 287 288 288 289 291 291 294 298 300 300 295
273 273 274 275 275 276 277 278 279 279 279 279 279 279 279 278 279 279 278 278 276 271 270 270 269 267 267 267 268 269 269 268 268 267 265 264 264 264 265 266 267 268 268 267 266 264 262 264 271 275 276 277 277 276 274 274 273 270 268 267 271 278 282 283 286 288 286 283 281 284 281 280 284 286 285 286 287 287 286 285 286 290 294 299 303 301 298 292
274 275 276 276 276 277 277 278 279 280 280 280 282 282 282 282 283 283 283 282 280 275 269 269 270 269 268 268 268 267 266 267 267 267 265 260 261 262 263 265 267 267 267 267 267 266 265 268 273 275 274 274 275 275 273 274 277 276 272 270 274 280 280 279 283 284 282 280 279 284 285 283 284 286 287 288 289 287 285 285 289 295 299 304 304 300 296 289
276 277 276 276 277 278 278 278 279 280 281 282 283 283 284 284 286 287 288 287 284 280 276 273 272 271 271 269 267 265 265 265 263 264 265 261 261 262 263 263 264 265 266 266 266 266 268 271 271 272 273 273 273 273 271 272 277 277 274 273 279 283 282 281 281 277 275 277 281 286 288 286 286 286 287 289 288 287 287 290 294 299 303 304 301 296 292 289
277 277 277 277 277 278 279 279 280 280 281 282 282 283 283 285 287 288 291 290 285 283 284 280 275 273 271 267 266 263 261 262 262 262 262 260 260 261 262 262 262 264 265 266 266 264 266 269 269 270 272 272 271 271 272 273 274 274 275 278 280 282 281 279 277 273 268 274 281 274 265 288 287 282 282 283 283 284 286 290 294 299 302 302 298 292 292 292
276 276 277 278 278 279 279 280 281 281 282 283 282 282 283 284 285 288 293 291 284 283 287 281 272 271 270 268 267 257 250 259 263 260 260 260 260 259 259 260 260 262 263 260 259 261 263 264 266 270 271 270 269 270 274 275 270 270 276 279 277 278 278 276 274 270 268 274 276 264 258 280 283 280 281 280 280 283 284 288 293 297 300 299 298 295 292 287
277 277 277 278 279 279 279 281 282 282 283 284 283 283 282 280 282 285 287 283 277 285 289 281 270 269 267 265 260 248 247 259 262 260 261 260 258 258 258 259 259 260 261 257 254 260 264 264 266 269 269 268 269 273 276 274 269 270 275 276 273 274 274 273 272 269 275 281 275 263 257 260 274 278 282 282 277 278 282 287 292 293 296 299 303 300 279 246
279 278 279 278 278 279 280 280 281 281 282 282 284 284 280 278 279 277 268 255 265 276 272 268 264 260 259 256 251 246 250 258 260 261 262 256 255 257 257 258 257 254 254 253 257 262 263 264 265 264 264 268 272 274 275 272 269 270 273 272 271 272 272 272 273 274 280 278 261 251 243 229 274 278 275 268 268 273 281 285 289 291 295 298 304 304 287 263
280 281 280 279 279 279 279 279 281 281 280 281 282 280 279 278 272 262 248 250 261 269 265 262 260 257 255 251 248 250 253 256 259 261 260 255 255 255 254 256 255 253 251 248 255 263 264 263 262 260 264 269 271 271 271 270 267 268 270 270 271 274 275 273 273 275 282 271 261 258 249 230 267 282 270 257 268 276 279 276 281 291 295 297 302 305 301 296
281 281 280 280 280 280 279 279 278 278 281 280 279 278 277 272 261 241 240 257 263 266 264 262 262 260 259 258 257 255 252 253 254 255 257 257 257 255 252 252 249 250 253 250 255 262 263 262 261 263 266 267 268 268 268 267 266 267 268 267 272 278 277 274 268 261 238 266 268 270 257 232 234 266 276 279 281 276 270 264 274 290 294 296 302 304 304 303
281 282 281 280 279 279 279 279 278 279 280 278 276 274 267 259 247 238 244 258 270 274 266 261 260 262 265 263 257 251 247 248 250 251 255 257 258 258 256 256 251 247 250 256 261 264 262 264 267 268 268 267 266 264 263 263 263 264 261 258 260 273 276 260 222 212 219 258 271 278 264 234 239 256 264 271 270 261 266 258 252 283 296 296 300 302 302 302
282 284 283 281 280 279 276 277 278 279 278 274 272 266 252 232 245 248 248 251 253 263 270 267 265 267 268 259 250 246 243 246 249 247 250 253 255 257 258 257 253 247 250 258 265 266 265 269 268 263 264 265 262 258 259 264 264 262 258 250 235 211 262 249 233 243 241 259 274 271 253 240 254 264 263 263 265 266 271 256 232 267 294 295 297 300 299 297
277 279 279 278 279 278 274 274 274 275 273 267 264 256 231 223 251 255 251 251 256 262 267 270 271 269 265 258 254 251 248 248 249 245 246 249 250 252 254 254 251 250 251 252 255 258 262 269 266 261 263 266 264 263 266 270 268 266 265 257 242 232 225 231 242 243 254 279 281 250 217 241 264 271 273 276 278 271 265 260 257 272 285 290 294 297 296 289
271 272 272 269 268 271 274 273 271 273 273 267 257 237 222 234 251 257 257 260 267 270 266 265 268 266 263 261 258 256 253 251 251 246 244 247 249 253 255 255 253 251 247 244 249 254 251 263 270 269 267 269 269 268 268 263 261 264 261 246 243 245 242 243 249 256 278 310 280 240 232 262 269 273 277 278 279 270 252 258 271 276 279 287 293 293 287 274
268 269 270 267 265 268 273 274 274 274 276 272 247 223 235 248 252 252 256 259 260 271 269 263 261 260 258 258 256 255 252 250 251 248 246 249 251 254 255 256 256 253 249 247 251 255 251 262 273 273 269 269 269 267 264 256 253 258 249 239 251 256 248 241 251 265 277 294 274 265 262 272 278 282 281 274 269 266 252 252 269 277 280 287 290 285 273 266
267 267 267 267 268 269 272 276 278 277 277 266 242 236 254 263 260 254 254 252 243 261 283 269 260 258 257 256 257 258 255 250 250 248 247 249 251 253 253 254 256 254 253 253 254 257 257 262 270 272 270 268 266 266 263 253 246 245 248 256 261 256 243 237 248 284 268 255 273 273 273 279 281 280 283 284 273 265 251 251 271 281 278 275 274 274 274 275
267 266 265 265 267 269 272 275 274 273 270 253 241 251 263 267 267 264 260 258 254 257 267 266 264 265 263 264 266 268 263 252 249 248 248 250 254 258 256 254 256 256 255 255 253 257 258 257 263 266 268 269 268 264 252 244 242 244 253 259 253 240 229 223 212 241 251 236 272 275 278 278 269 266 276 285 283 270 252 257 276 274 259 254 269 283 284 279
269 269 267 264 264 266 268 272 271 267 259 244 238 250 260 264 268 266 263 262 258 255 257 258 260 262 263 266 269 273 272 261 255 251 251 252 256 262 264 260 260 259 260 257 253 256 256 250 254 259 261 266 265 256 245 243 245 244 248 249 245 244 232 213 210 215 234 236 256 274 281 276 271 273 279 284 283 274 259 261 266 243 234 262 285 293 291 283
273 272 268 266 267 265 265 269 270 262 254 249 247 254 261 265 269 269 267 262 256 255 256 254 257 260 262 266 267 269 272 271 265 256 254 257 260 266 271 269 266 265 264 259 255 257 252 245 247 252 255 259 258 255 256 258 257 248 242 243 244 242 233 230 229 226 229 230 243 259 267 269 273 281 288 286 283 275 267 262 257 239 246 276 290 295 295 286
274 272 269 268 269 269 267 266 266 262 258 256 257 259 261 264 268 272 272 266 262 262 260 256 256 256 257 261 261 261 265 270 271 264 258 257 258 264 270 274 277 275 266 254 248 249 246 243 245 246 249 254 257 261 266 268 268 264 256 254 256 249 237 237 241 234 235 231 237 242 249 265 269 274 284 285 281 276 274 271 275 274 272 280 289 293 292 284
272 270 269 270 270 272 270 266 263 263 261 260 261 263 264 266 270 272 272 271 268 265 263 261 261 258 256 258 259 259 261 263 265 264 260 258 260 264 270 276 281 279 269 259 256 258 256 248 241 242 250 256 262 268 271 269 268 265 258 255 258 252 239 233 235 243 243 236 242 248 248 261 265 267 275 281 281 279 276 274 279 282 280 283 287 289 288 285
269 269 270 271 271 271 269 265 262 261 262 264 266 265 265 267 269 270 271 270 267 264 263 263 265 264 263 262 260 260 262 260 257 255 252 254 257 257 260 267 275 278 270 262 262 262 256 245 237 246 257 258 261 266 266 266 264 254 249 248 249 248 242 240 244 252 254 243 241 247 244 259 266 269 272 275 274 273 274 276 279 281 282 283 285 286 287 288
268 269 269 269 269 266 260 258 260 262 264 267 268 268 267 266 265 266 268 268 268 268 268 269 270 269 268 269 265 263 264 261 259 259 255 252 255 256 255 256 260 265 262 257 259 257 251 246 244 249 258 256 255 258 258 260 261 253 252 252 250 249 249 248 249 252 254 248 245 249 253 260 266 271 274 274 273 272 275 277 278 280 280 280 282 283 286 288
266 266 266 266 266 263 259 258 259 261 263 265 267 269 268 265 265 267 269 271 270 269 270 271 271 269 270 272 270 269 268 262 261 266 264 262 268 271 267 261 256 255 255 254 254 253 255 254 247 242 244 247 246 251 257 264 275 278 271 269 265 260 255 252 251 249 250 250 247 248 257 262 265 269 272 272 272 272 274 276 276 277 278 278 280 283 285 287
264 263 263 264 263 261 262 263 262 259 259 261 263 265 266 266 268 271 271 271 270 269 267 266 266 268 269 269 267 267 268 265 262 264 266 269 275 279 276 272 268 264 261 257 253 253 253 248 240 237 240 248 251 255 262 268 274 276 274 274 274 273 270 261 253 248 252 257 252 250 257 263 264 268 270 272 273 273 274 276 276 276 276 278 280 283 285 285
262 260 261 261 260 258 260 263 264 262 261 260 259 261 264 267 270 270 268 267 267 268 266 263 263 264 265 266 265 265 266 267 264 262 266 271 275 277 275 272 270 271 273 270 266 262 254 245 242 240 240 246 252 256 262 265 264 264 265 266 265 267 269 264 258 256 257 258 256 256 260 263 264 266 270 273 276 277 277 278 278 278 277 278 281 282 282 282
262 260 259 258 257 256 256 260 264 264 262 260 259 261 262 264 265 265 267 267 267 265 262 261 261 263 265 267 266 264 263 264 261 260 265 271 276 278 275 270 271 277 281 276 271 268 259 252 254 252 249 251 255 260 263 262 262 263 262 262 264 264 262 260 259 260 257 254 257 261 262 263 264 265 268 272 275 277 278 279 278 278 278 279 279 278 279 279
262 260 257 253 251 252 254 256 260 260 257 254 256 259 260 260 262 264 266 266 263 260 259 260 261 263 266 267 263 259 258 258 258 262 268 274 279 279 275 274 277 282 282 272 267 270 263 256 259 259 254 255 262 266 264 259 259 260 258 258 261 263 262 260 259 259 258 257 259 262 261 262 265 268 268 271 274 276 278 281 281 281 281 281 279 277 278 279
262 259 256 252 250 249 249 251 252 253 252 250 251 253 255 257 259 261 262 261 260 260 261 262 264 265 266 267 263 259 261 263 264 266 271 274 275 275 273 274 278 281 279 270 267 271 264 258 262 262 256 258 263 264 261 256 253 254 256 258 260 260 260 257 255 255 255 255 258 260 259 261 267 270 271 273 277 279 281 284 286 288 287 284 282 279 279 281
261 258 255 253 253 252 251 250 249 251 253 252 252 253 254 255 258 260 261 261 261 263 264 265 268 269 267 265 262 262 266 268 267 269 274 273 272 272 271 273 277 277 274 271 270 270 263 257 259 258 251 253 260 262 260 256 253 249 251 255 256 254 254 253 253 253 253 253 256 256 255 260 270 276 276 277 280 281 281 284 290 293 291 286 283 281 282 286
261 259 255 251 253 255 255 254 251 250 252 252 254 258 259 260 261 262 264 264 263 264 265 266 267 267 265 263 263 266 270 271 271 274 277 276 274 271 268 268 271 271 269 269 268 266 262 257 255 253 249 251 260 265 262 258 252 241 244 253 257 255 254 253 253 255 256 255 254 253 257 266 276 279 275 275 281 283 282 286 291 291 289 286 283 283 286 288
Height
3188 3188 3188 3188 3188 3188 3187 3187 3187 3187 3186 3186 3186 3186 3186 3185 3185 3185 3185 3184 3184 3184 3184 3183 3183 3183 3182 3182 3182 3181 3181 3181 3181 3180 3180 3180 3180 3179 3179 3178 3178 3177 3177 3176 3176 3175 3175 3174 3173 3173 3173 3172 3172 3172 3171 3171 3171 3170 3170 3169 3168 3167 3168 3168 3168 3166 3165 3164 3163 3161 3161 3161 3159 3158 3159 3158 3157 3157 3156 3156 3155 3155 3155 3154 3154 3152 3153 3154
3187 3187 3187 3187 3187 3187 3187 3186 3186 3186 3186 3185 3185 3185 3185 3185 3184 3184 3184 3183 3183 3183 3183 3182 3182 3181 3181 3181 3180 3180 3180 3180 3179 3179 3179 3179 3179 3178 3178 3177 3177 3177 3176 3175 3175 3174 3174 3173 3172 3172 3172 3171 3171 3171 3170 3170 3169 3169 3168 3167 3167 3166 3167 3167 3166 3165 3164 3163 3162 3160 3159 3159 3158 3157 3157 3157 3156 3155 3154 3154 3153 3153 3152 3152 3152 3151 3151 3152
3185 3185 3186 3186 3186 3186 3185 3185 3185 3185 3185 3184 3184 3184 3184 3183 3183 3183 3183 3182 3182 3182 3181 3181 3181 3180 3180 3179 3179 3178 3178 3178 3178 3178 3178 3178 3177 3177 3177 3176 3176 3176 3175 3175 3174 3173 3173 3172 3171 3171 3170 3170 3170 3170 3169 3169 3168 3168 3167 3166 3166 3165 3165 3165 3164 3163 3162 3162 3161 3159 3158 3157 3157 3155 3155 3155 3154 3153 3152 3152 3151 3151 3150 3150 3150 3149 3149 3150
3184 3184 3184 3184 3184 3184 3184 3184 3184 3184 3183 3183 3183 3183 3182 3182 3182 3182 3181 3181 3181 3181 3180 3180 3179 3179 3178 3178 3177 3177 3176 3176 3176 3177 3176 3176 3176 3176 3175 3175 3174 3174 3174 3173 3173 3173 3172 3171 3171 3170 3169 3169 3168 3168 3168 3168 3167 3166 3165 3165 3164 3164 3164 3163 3162 3161 3161 3160 3159 3158 3156 3155 3155 3154 3153 3153 3152 3151 3151 3150 3150 3149 3149 3148 3148 3148 3148 3148
3183 3183 3183 3183 3183 3183 3183 3183 3183 3182 3182 3182 3182 3181 3181 3181 3181 3180 3180 3180 3179 3179 3179 3179 3178 3178 3177 3177 3176 3175 3175 3175 3175 3175 3175 3175 3175 3174 3174 3173 3173 3173 3172 3172 3172 3171 3171 3170 3170 3169 3168 3168 3167 3166 3166 3166 3166 3164 3163 3163 3163 3162 3161 3161 3160 3160 3159 3158 3157 3156 3155 3154 3153 3152 3151 3151 3150 3150 3149 3148 3148 3148 3147 3146 3147 3147 3146 3146
3181 3181 3181 3181 3181 3181 3181 3181 3181 3181 3181 3181 3180 3180 3180 3180 3179 3179 3179 3178 3178 3178 3177 3177 3177 3176 3176 3175 3175 3174 3174 3173 3174 3174 3173 3173 3173 3172 3172 3172 3171 3171 3171 3170 3170 3170 3169 3169 3168 3168 3167 3167 3166 3165 3164 3164 3164 3162 3161 3162 3161 3160 3159 3158 3157 3157 3157 3156 3155 3154 3153 3152 3151 3150 3150 3148 3148 3149 3147 3145 3145 3145 3145 3144 3144 3145 3145 3144
3180 3180 3180 3180 3180 3179 3179 3179 3179 3179 3179 3179 3179 3179 3179 3178 3178 3177 3177 3177 3176 3176 3176 3175 3175 3175 3174 3173 3173 3173 3172 3172 3173 3172 3171 3171 3171 3171 3170 3170 3169 3169 3169 3169 3168 3168 3168 3167 3167 3166 3165 3165 3165 3164 3163 3162 3161 3160 3159 3160 3159 3158 3157 3156 3155 3155 3155 3153 3153 3152 3150 3151 3149 3148 3147 3145 3146 3147 3146 3144 3143 3143 3142 3142 3141 3142 3142 3142
3178 3178 3178 3178 3178 3178 3178 3177 3178 3178 3177 3177 3177 3177 3177 3177 3176 3176 3176 3175 3175 3175 3174 3174 3173 3173 3172 3172 3171 3171 3170 3171 3171 3170 3170 3170 3169 3169 3168 3168 3168 3167 3167 3167 3167 3166 3166 3165 3165 3164 3163 3163 3163 3163 3162 3161 3159 3158 3158 3158 3157 3156 3156 3155 3153 3152 3152 3151 3150 3149 3148 3148 3147 3145 3143 3143 3144 3145 3144 3142 3142 3142 3141 3140 3139 3139 3139 3139
3176 3176 3176 3176 3176 3176 3176 3175 3176 3175 3175 3175 3175 3175 3175 3175 3174 3174 3174 3174 3173 3173 3172 3172 3171 3171 3170 3170 3169 3168 3169 3170 3169 3169 3168 3168 3168 3167 3167 3167 3166 3166 3166 3165 3165 3164 3164 3164 3163 3162 3161 3161 3161 3161 3160 3159 3157 3156 3156 3155 3154 3153 3153 3152 3150 3150 3149 3148 3147 3146 3146 3146 3146 3143 3139 3141 3143 3142 3141 3140 3139 3139 3139 3138 3137 3137 3137 3136
3174 3174 3174 3174 3174 3174 3174 3174 3173 3173 3173 3173 3173 3173 3173 3172 3172 3172 3172 3171 3171 3171 3170 3170 3169 3169 3168 3168 3167 3166 3168 3168 3167 3167 3167 3166 3166 3166 3165 3165 3164 3164 3164 3163 3163 3163 3162 3162 3161 3160 3160 3159 3158 3158 3158 3156 3155 3154 3153 3152 3151 3150 3150 3150 3148 3147 3146 3145 3144 3143 3143 3143 3143 3140 3136 3139 3141 3140 3139 3138 3137 3136 3136 3136 3135 3134 3134 3133
3172 3172 3172 3172 3172 3171 3172 3171 3171 3171 3171 3171 3171 3170 3170 3170 3170 3170 3169 3169 3169 3168 3168 3167 3167 3166 3166 3166 3164 3164 3166 3166 3165 3165 3165 3165 3164 3164 3163 3163 3162 3162 3162 3161 3161 3161 3161 3160 3160 3159 3158 3157 3156 3156 3155 3154 3153 3152 3151 3148 3148 3148 3147 3146 3145 3144 3144 3142 3141 3140 3139 3139 3138 3135 3134 3137 3138 3137 3136 3135 3135 3134 3134 3134 3132 3131 3130 3130
3170 3170 3170 3170 3169 3169 3169 3169 3169 3169 3169 3169 3168 3168 3168 3167 3167 3167 3167 3167 3166 3166 3166 3165 3164 3164 3163 3162 3162 3162 3163 3163 3163 3163 3163 3163 3162 3162 3161 3161 3160 3160 3160 3159 3159 3159 3159 3158 3157 3156 3156 3154 3154 3154 3152 3151 3150 3149 3148 3145 3144 3144 3142 3142 3141 3141 3141 3139 3138 3138 3135 3133 3132 3130 3133 3135 3134 3134 3133 3132 3132 3131 3130 3130 3130 3129 3127 3127
3167 3167 3167 3167 3167 3167 3167 3166 3166 3166 3166 3166 3166 3166 3165 3165 3165 3165 3165 3164 3164 3163 3163 3162 3161 3161 3159 3159 3160 3161 3160 3160 3160 3160 3160 3160 3160 3159 3159 3159 3158 3158 3157 3157 3157 3157 3156 3155 3155 3154 3153 3152 3152 3151 3149 3148 3147 3146 3146 3143 3140 3139 3137 3138 3138 3136 3137 3135 3136 3136 3131 3128 3129 3128 3130 3132 3130 3131 3130 3129 3129 3128 3128 3127 3127 3126 3124 3124
3165 3165 3165 3165 3165 3165 3164 3164 3164 3163 3164 3163 3163 3163 3162 3162 3162 3161 3162 3162 3161 3161 3160 3159 3158 3157 3155 3155 3158 3158 3157 3158 3158 3158 3158 3158 3157 3157 3157 3156 3156 3155 3155 3155 3154 3154 3153 3153 3152 3151 3150 3150 3149 3148 3146 3146 3145 3143 3143 3141 3138 3135 3132 3134 3134 3133 3133 3132 3132 3133 3127 3123 3127 3127 3126 3128 3127 3127 3127 3126 3126 3125 3124 3124 3124 3123 3121 3121
3162 3162 3162 3162 3162 3162 3162 3162 3161 3161 3161 3161 3161 3160 3160 3159 3159 3159 3158 3158 3158 3158 3157 3156 3155 3154 3151 3152 3155 3155 3154 3155 3155 3156 3156 3155 3154 3154 3154 3153 3153 3153 3152 3152 3152 3151 3150 3149 3148 3148 3147 3147 3147 3145 3143 3143 3142 3141 3139 3136 3136 3133 3130 3130 3131 3130 3130 3128 3129 3129 3124 3119 3123 3125 3123 3123 3123 3123 3123 3122 3122 3121 3120 3120 3120 3120 3118 3117
3159 3159 3159 3159 3159 3159 3159 3159 3158 3159 3158 3158 3158 3157 3157 3156 3156 3156 3155 3155 3155 3154 3154 3153 3152 3151 3148 3148 3151 3151 3152 3152 3152 3153 3152 3152 3151 3151 3151 3150 3150 3150 3150 3149 3149 3148 3147 3146 3145 3145 3145 3145 3144 3141 3140 3140 3138 3138 3136 3133 3133 3131 3129 3129 3128 3127 3127 3125 3125 3125 3121 3117 3119 3122 3122 3120 3119 3119 3118 3118 3119 3118 3116 3116 3116 3115 3114 3114
3155 3155 3156 3156 3156 3156 3156 3155 3155 3156 3155 3155 3155 3155 3154 3153 3153 3153 3152 3152 3151 3150 3150 3148 3148 3147 3144 3146 3148 3148 3149 3149 3149 3149 3149 3149 3148 3148 3148 3147 3147 3147 3146 3146 3145 3145 3144 3143 3142 3142 3142 3141 3140 3139 3138 3136 3134 3134 3134 3131 3131 3130 3128 3127 3125 3125 3125 3122 3121 3120 3117 3114 3115 3119 3120 3118 3116 3114 3113 3113 3114 3115 3113 3112 3112 3110 3108 3108
3152 3152 3152 3153 3153 3153 3152 3152 3152 3152 3152 3152 3152 3152 3151 3150 3150 3149 3148 3148 3147 3147 3146 3144 3145 3143 3140 3143 3144 3144 3146 3146 3146 3146 3146 3146 3146 3145 3144 3144 3144 3143 3142 3142 3141 3141 3141 3140 3138 3138 3138 3137 3136 3136 3134 3131 3131 3132 3132 3130 3129 3128 3126 3126 3124 3123 3123 3120 3118 3117 3112 3110 3111 3114 3116 3116 3114 3110 3108 3108 3109 3111 3111 3110 3109 3107 3105 3103
3148 3148 3149 3149 3149 3149 3149 3148 3149 3149 3149 3149 3149 3148 3148 3147 3147 3146 3144 3144 3143 3143 3142 3141 3141 3139 3137 3139 3141 3141 3142 3143 3142 3143 3144 3143 3143 3141 3141 3140 3139 3139 3138 3137 3137 3137 3137 3135 3134 3133 3133 3132 3132 3132 3129 3128 3130 3130 3129 3127 3125 3124 3123 3122 3121 3120 3120 3117 3114 3113 3108 3106 3107 3108 3110 3112 3111 3108 3104 3104 3103 3104 3105 3105 3104 3103 3102 3100
3145 3145 3145 3145 3145 3145 3145 3145 3145 3145 3146 3146 3146 3145 3144 3144 3142 3141 3140 3138 3138 3139 3139 3138 3136 3136 3135 3135 3137 3138 3138 3139 3139 3140 3141 3140 3139 3138 3137 3137 3135 3134 3134 3133 3133 3134 3134 3129 3127 3128 3128 3129 3131 3130 3128 3127 3128 3126 3125 3123 3121 3121 3117 3116 3117 3116 3116 3112 3108 3108 3105 3103 3102 3102 3104 3105 3105 3104 3102 3101 3100 3100 3100 3099 3099 3098 3098 3096
3143 3143 3143 3142 3142 3142 3141 3141 3142 3142 3142 3142 3143 3142 3141 3140 3138 3136 3134 3132 3133 3134 3134 3134 3132 3131 3131 3132 3133 3135 3135 3135 3135 3135 3136 3136 3135 3134 3133 3132 3130 3129 3130 3132 3131 3129 3128 3121 3120 3124 3126 3129 3129 3128 3127 3126 3125 3123 3122 3120 3118 3116 3112 3112 3114 3112 3111 3107 3102 3103 3101 3098 3097 3097 3099 3099 3098 3097 3098 3099 3097 3097 3096 3095 3094 3093 3093 3092
3140 3139 3140 3140 3140 3139 3138 3139 3138 3139 3139 3138 3139 3138 3137 3137 3135 3133 3129 3124 3125 3129 3128 3128 3128 3126 3128 3129 3129 3132 3131 3130 3130 3130 3132 3134 3131 3130 3128 3127 3126 3125 3126 3128 3128 3124 3118 3113 3116 3123 3125 3126 3125 3124 3124 3123 3122 3121 3119 3117 3114 3112 3109 3107 3109 3109 3107 3102 3098 3098 3095 3091 3093 3093 3093 3093 3091 3091 3093 3095 3094 3093 3092 3091 3091 3090 3089 3087
3136 3136 3137 3136 3137 3136 3135 3135 3135 3136 3136 3135 3135 3135 3134 3133 3132 3130 3127 3118 3115 3121 3123 3121 3122 3121 3124 3125 3126 3129 3126 3124 3125 3124 3129 3130 3126 3126 3125 3121 3121 3122 3122 3122 3122 3119 3110 3108 3114 3121 3123 3121 3119 3120 3120 3119 3117 3115 3115 3114 3110 3110 3109 3104 3104 3105 3103 3099 3095 3094 3089 3084 3087 3087 3086 3088 3086 3086 3088 3089 3089 3089 3088 3088 3087 3086 3085 3083
3133 3133 3133 3133 3134 3133 3132 3132 3132 3132 3133 3133 3132 3132 3131 3130 3129 3127 3123 3114 3105 3109 3116 3117 3116 3115 3118 3121 3123 3125 3121 3119 3120 3118 3124 3125 3121 3122 3120 3118 3117 3117 3117 3116 3116 3112 3105 3108 3114 3116 3117 3117 3115 3115 3116 3115 3112 3108 3110 3110 3106 3106 3107 3103 3102 3102 3099 3096 3093 3092 3082 3074 3079 3081 3078 3082 3082 3080 3082 3083 3084 3085 3084 3084 3083 3082 3081 3079
3130 3130 3130 3130 3130 3129 3129 3128 3129 3129 3129 3130 3130 3129 3129 3127 3127 3124 3121 3112 3098 3096 3106 3111 3110 3109 3113 3116 3116 3119 3116 3113 3114 3114 3117 3118 3118 3117 3116 3116 3113 3110 3112 3114 3112 3105 3101 3107 3111 3111 3112 3112 3111 3110 3112 3113 3107 3103 3103 3105 3103 3102 3102 3101 3101 3099 3095 3091 3089 3091 3081 3065 3069 3076 3072 3074 3076 3074 3076 3077 3077 3080 3080 3080 3079 3078 3078 3076
3126 3127 3127 3127 3127 3126 3126 3124 3125 3126 3125 3127 3126 3126 3126 3125 3125 3123 3119 3110 3092 3087 3096 3101 3103 3104 3106 3108 3110 3113 3111 3106 3107 3110 3111 3112 3114 3113 3111 3110 3108 3107 3108 3110 3108 3101 3099 3104 3106 3107 3107 3107 3107 3105 3108 3110 3105 3098 3097 3100 3101 3099 3099 3097 3098 3096 3092 3088 3086 3089 3085 3067 3058 3065 3069 3069 3070 3069 3071 3071 3071 3074 3075 3075 3075 3074 3075 3073
3123 3123 3123 3123 3124 3123 3122 3121 3122 3122 3122 3123 3122 3123 3123 3122 3123 3121 3119 3109 3089 3083 3090 3094 3096 3097 3099 3102 3104 3107 3104 3098 3101 3105 3105 3107 3108 3108 3106 3104 3103 3103 3104 3108 3103 3095 3097 3100 3100 3102 3103 3102 3102 3101 3103 3106 3102 3094 3093 3097 3096 3096 3096 3094 3094 3093 3088 3086 3083 3083 3089 3077 3050 3048 3061 3064 3065 3066 3065 3066 3067 3069 3071 3071 3071 3071 3070 3070
3119 3119 3119 3120 3120 3120 3119 3119 3118 3118 3119 3118 3119 3120 3119 3119 3120 3120 3120 3109 3087 3082 3088 3090 3091 3092 3094 3097 3099 3100 3098 3096 3099 3100 3101 3104 3103 3102 3100 3098 3099 3098 3100 3103 3096 3091 3095 3097 3097 3098 3098 3097 3096 3097 3099 3101 3099 3092 3091 3093 3092 3094 3093 3091 3091 3089 3086 3083 3077 3075 3086 3081 3048 3038 3054 3057 3058 3061 3059 3062 3064 3064 3067 3066 3066 3066 3065 3066
3115 3115 3115 3116 3116 3117 3116 3115 3115 3115 3115 3115 3116 3116 3115 3117 3117 3117 3119 3104 3083 3081 3086 3087 3088 3089 3092 3094 3095 3096 3096 3096 3096 3096 3098 3100 3098 3098 3095 3094 3096 3095 3095 3096 3090 3089 3093 3092 3092 3093 3093 3093 3092 3094 3096 3096 3094 3091 3091 3089 3089 3091 3089 3090 3087 3085 3088 3079 3069 3071 3079 3078 3048 3031 3047 3051 3049 3054 3054 3058 3060 3061 3063 3062 3062 3062 3061 3062
3111 3111 3111 3111 3112 3113 3112 3112 3112 3111 3111 3113 3113 3112 3113 3114 3113 3115 3110 3091 3080 3082 3083 3083 3085 3087 3089 3091 3092 3094 3094 3094 3093 3093 3094 3095 3094 3094 3091 3090 3093 3091 3091 3090 3086 3087 3088 3086 3087 3087 3088 3089 3089 3091 3091 3091 3090 3088 3089 3087 3087 3088 3085 3087 3083 3083 3087 3068 3058 3066 3071 3074 3051 3025 3036 3044 3041 3046 3049 3052 3055 3057 3059 3058 3059 3059 3057 3057
3107 3106 3106 3106 3108 3108 3107 3108 3109 3108 3109 3109 3109 3110 3110 3110 3112 3109 3094 3079 3080 3082 3079 3081 3082 3083 3086 3087 3089 3090 3090 3090 3090 3090 3090 3090 3090 3088 3086 3087 3088 3088 3087 3085 3082 3083 3083 3081 3081 3082 3084 3085 3086 3087 3086 3086 3086 3086 3087 3085 3085 3085 3082 3083 3080 3083 3083 3060 3051 3060 3064 3068 3048 3022 3029 3037 3035 3042 3043 3045 3049 3052 3054 3054 3055 3055 3053 3053
3102 3102 3101 3101 3103 3104 3104 3103 3104 3105 3106 3105 3106 3106 3106 3108 3105 3092 3079 3078 3083 3078 3076 3079 3078 3079 3083 3083 3083 3084 3084 3085 3085 3086 3087 3086 3085 3082 3081 3082 3084 3085 3083 3080 3079 3079 3078 3076 3078 3079 3080 3081 3082 3082 3081 3081 3082 3082 3082 3082 3085 3085 3082 3081 3079 3079 3074 3055 3049 3056 3059 3055 3032 3019 3031 3036 3034 3037 3039 3042 3044 3045 3048 3049 3050 3050 3049 3049
3098 3097 3096 3095 3097 3099 3100 3099 3100 3101 3101 3101 3102 3101 3103 3105 3089 3073 3074 3081 3081 3075 3075 3076 3076 3078 3079 3078 3077 3078 3080 3081 3081 3083 3083 3082 3080 3077 3077 3077 3079 3081 3079 3078 3078 3076 3074 3072 3073 3075 3074 3077 3077 3077 3077 3076 3077 3076 3075 3077 3080 3081 3081 3079 3076 3071 3062 3051 3049 3054 3055 3042 3021 3018 3029 3031 3032 3034 3034 3039 3041 3040 3042 3043 3044 3045 3044 3045
3094 3094 3092 3090 3091 3092 3093 3095 3096 3096 3095 3096 3096 3096 3100 3094 3074 3066 3075 3078 3077 3077 3076 3074 3075 3075 3074 3073 3073 3074 3077 3077 3076 3079 3079 3076 3074 3072 3072 3072 3074 3076 3076 3077 3075 3074 3072 3066 3064 3068 3070 3071 3071 3072 3074 3072 3071 3069 3069 3073 3071 3071 3074 3072 3068 3061 3054 3050 3049 3050 3046 3031 3018 3018 3021 3023 3028 3030 3031 3035 3037 3037 3038 3039 3039 3039 3039 3040
3089 3088 3088 3086 3085 3085 3087 3090 3091 3090 3089 3090 3090 3091 3090 3078 3065 3068 3073 3074 3076 3077 3074 3073 3073 3072 3070 3070 3069 3070 3073 3073 3071 3073 3072 3070 3068 3066 3066 3067 3070 3073 3073 3073 3071 3071 3070 3061 3057 3062 3064 3065 3065 3068 3071 3070 3067 3064 3066 3068 3064 3064 3067 3065 3060 3055 3055 3054 3045 3041 3036 3022 3016 3017 3017 3020 3022 3024 3028 3029 3031 3033 3034 3035 3035 3034 3035 3035
3084 3083 3083 3081 3080 3082 3083 3084 3086 3085 3083 3084 3083 3081 3075 3066 3064 3069 3070 3071 3075 3074 3072 3071 3071 3068 3066 3066 3066 3066 3069 3069 3068 3067 3065 3065 3063 3061 3061 3061 3065 3068 3068 3068 3067 3067 3065 3059 3057 3057 3056 3058 3060 3063 3066 3066 3062 3060 3060 3060 3059 3061 3062 3061 3058 3055 3058 3056 3039 3031 3027 3019 3017 3011 3007 3015 3018 3019 3024 3024 3026 3029 3028 3030 3030 3029 3031 3031
3079 3078 3076 3075 3077 3079 3079 3080 3081 3080 3079 3077 3073 3070 3065 3059 3061 3066 3067 3069 3071 3071 3071 3069 3066 3065 3063 3062 3062 3063 3065 3066 3064 3061 3060 3060 3055 3053 3056 3057 3058 3062 3063 3064 3063 3062 3061 3057 3056 3054 3050 3053 3056 3058 3060 3059 3056 3056 3056 3055 3056 3059 3058 3058 3060 3057 3058 3054 3037 3027 3023 3020 3018 3005 2997 3009 3015 3015 3020 3020 3021 3023 3023 3025 3024 3025 3027 3026
3072 3071 3069 3070 3072 3074 3075 3076 3075 3075 3074 3069 3063 3062 3058 3054 3056 3060 3063 3066 3067 3068 3069 3067 3064 3063 3062 3061 3059 3060 3061 3060 3059 3057 3056 3055 3048 3046 3052 3054 3053 3054 3059 3061 3058 3058 3058 3053 3053 3052 3047 3048 3052 3053 3052 3050 3052 3053 3052 3052 3053 3052 3052 3054 3057 3055 3054 3051 3037 3027 3022 3015 3009 3000 2997 3007 3010 3010 3014 3015 3016 3017 3018 3019 3020 3022 3023 3022
3065 3064 3061 3064 3068 3068 3070 3072 3070 3068 3066 3060 3056 3054 3051 3049 3051 3055 3059 3062 3063 3063 3063 3062 3062 3061 3059 3059 3058 3058 3057 3054 3054 3054 3052 3050 3045 3042 3047 3050 3049 3050 3054 3056 3053 3053 3053 3049 3048 3048 3045 3046 3047 3045 3043 3045 3049 3049 3048 3048 3047 3046 3047 3046 3048 3047 3046 3044 3035 3030 3023 3005 2994 2998 3001 3004 3006 3007 3009 3010 3011 3013 3014 3015 3016 3017 3018 3018
3059 3057 3054 3058 3061 3061 3066 3067 3064 3061 3056 3052 3051 3049 3048 3048 3048 3051 3055 3058 3059 3058 3058 3058 3059 3057 3056 3055 3055 3056 3055 3051 3051 3051 3048 3047 3044 3042 3044 3045 3046 3047 3048 3049 3048 3048 3048 3044 3042 3043 3043 3042 3038 3035 3037 3041 3044 3043 3043 3043 3041 3041 3043 3042 3041 3038 3036 3035 3032 3031 3022 2997 2987 2997 3001 3001 3005 3006 3007 3008 3009 3011 3011 3011 3012 3012 3013 3013
3054 3051 3048 3053 3054 3054 3059 3059 3056 3055 3050 3046 3046 3044 3045 3047 3046 3047 3050 3053 3053 3053 3053 3053 3053 3053 3051 3051 3051 3051 3052 3049 3048 3048 3045 3044 3044 3043 3043 3043 3043 3044 3044 3043 3042 3042 3041 3038 3036 3038 3038 3034 3029 3031 3035 3036 3037 3038 3037 3036 3036 3037 3038 3038 3034 3029 3028 3028 3025 3026 3018 2994 2986 2996 2998 2999 3003 3003 3006 3008 3006 3007 3008 3007 3007 3008 3008 3008
3047 3044 3043 3048 3048 3048 3052 3049 3047 3048 3043 3039 3041 3041 3042 3043 3043 3044 3045 3046 3046 3046 3047 3046 3046 3046 3045 3045 3045 3045 3046 3044 3043 3043 3040 3040 3042 3042 3042 3041 3040 3040 3040 3037 3036 3037 3036 3033 3031 3030 3030 3028 3028 3031 3032 3030 3031 3032 3029 3030 3031 3031 3030 3028 3024 3023 3025 3023 3020 3022 3011 2988 2985 2995 2998 2998 3000 2999 3002 3004 3002 3003 3003 3002 3003 3003 3003 3003
3040 3038 3039 3042 3042 3043 3045 3041 3040 3040 3035 3034 3037 3037 3038 3039 3038 3040 3041 3040 3039 3040 3040 3039 3039 3039 3038 3039 3040 3039 3039 3037 3034 3035 3035 3035 3037 3037 3038 3038 3037 3036 3036 3033 3031 3032 3031 3027 3026 3025 3025 3026 3027 3028 3026 3024 3024 3024 3023 3025 3025 3023 3023 3021 3019 3022 3021 3017 3018 3016 3000 2984 2985 2994 2997 2997 2997 2996 2997 2998 2998 2998 2997 2998 2999 2998 2997 2997
3033 3034 3034 3035 3036 3037 3037 3034 3033 3032 3030 3032 3032 3031 3033 3033 3032 3033 3034 3033 3034 3034 3033 3033 3033 3034 3033 3035 3035 3033 3034 3031 3026 3027 3029 3029 3030 3030 3032 3033 3033 3033 3032 3029 3027 3026 3025 3022 3022 3023 3024 3024 3024 3023 3020 3018 3018 3018 3019 3021 3020 3019 3021 3019 3019 3020 3013 3011 3014 3005 2988 2984 2989 2993 2994 2994 2993 2992 2993 2993 2993 2993 2992 2993 2994 2993 2992 2991
3028 3027 3027 3029 3030 3028 3026 3027 3029 3027 3026 3028 3026 3025 3027 3025 3024 3027 3027 3027 3029 3029 3027 3025 3026 3028 3029 3031 3029 3026 3027 3025 3021 3020 3022 3023 3023 3024 3026 3027 3028 3028 3027 3025 3023 3021 3021 3020 3020 3021 3021 3019 3018 3017 3015 3015 3016 3016 3016 3018 3017 3017 3018 3016 3016 3014 3007 3006 3006 2995 2985 2987 2991 2992 2992 2990 2988 2988 2989 2989 2989 2989 2987 2988 2988 2987 2986 2984
3022 3020 3021 3023 3022 3020 3017 3019 3023 3021 3021 3023 3019 3019 3021 3017 3017 3022 3022 3020 3022 3023 3021 3019 3021 3022 3023 3024 3022 3019 3019 3019 3017 3015 3015 3016 3016 3018 3020 3020 3021 3021 3020 3019 3018 3017 3015 3015 3015 3015 3013 3013 3013 3012 3014 3014 3013 3012 3013 3013 3013 3014 3014 3014 3011 3006 3004 3002 2995 2989 2989 2988 2988 2990 2986 2981 2981 2983 2984 2984 2984 2984 2983 2982 2982 2981 2979 2978
3015 3014 3016 3017 3015 3014 3012 3012 3014 3012 3015 3017 3013 3011 3014 3012 3012 3015 3015 3013 3014 3017 3016 3014 3015 3017 3015 3016 3015 3011 3012 3013 3012 3010 3009 3009 3009 3010 3012 3013 3012 3013 3014 3013 3013 3012 3009 3007 3009 3009 3006 3007 3008 3008 3011 3011 3007 3006 3006 3006 3007 3008 3009 3009 3004 3001 3003 2997 2983 2985 2992 2985 2982 2985 2980 2974 2974 2975 2976 2978 2977 2977 2977 2975 2975 2974 2972 2971
3008 3007 3011 3013 3010 3008 3007 3007 3007 3006 3007 3009 3006 3005 3007 3007 3006 3006 3006 3007 3008 3010 3010 3006 3007 3009 3010 3012 3010 3005 3005 3007 3004 3004 3003 3002 3003 3003 3003 3004 3005 3007 3009 3008 3007 3007 3001 2997 3001 3001 2997 2998 3002 3002 3003 3003 2999 2997 2997 2997 2998 2999 2999 3000 2996 2993 2995 2988 2978 2984 2988 2977 2973 2978 2975 2970 2968 2966 2968 2970 2969 2968 2968 2968 2968 2967 2965 2965
3002 3001 3003 3006 3003 3002 3003 3003 3003 3002 3002 3002 3000 2998 3000 3000 2999 2999 3001 3003 3000 3002 3004 2999 2999 3002 3003 3005 3004 2999 2999 3000 2997 2997 2998 2996 2996 2997 2996 2995 2997 3001 3002 3000 2999 3000 2994 2988 2991 2992 2987 2988 2992 2992 2992 2991 2988 2986 2987 2986 2988 2988 2988 2988 2983 2980 2982 2979 2975 2978 2975 2967 2967 2970 2967 2964 2962 2962 2962 2962 2960 2959 2958 2959 2960 2959 2959 2958
2995 2995 2996 2997 2995 2995 2997 2998 2998 2997 2997 2998 2995 2993 2994 2993 2992 2994 2997 2996 2994 2995 2997 2993 2992 2995 2995 2996 2996 2991 2992 2995 2991 2990 2993 2991 2990 2992 2990 2988 2991 2993 2992 2992 2992 2991 2987 2981 2983 2985 2980 2977 2981 2981 2979 2980 2978 2976 2976 2978 2982 2981 2976 2973 2971 2970 2971 2967 2964 2965 2963 2960 2961 2960 2957 2957 2957 2957 2956 2953 2951 2951 2951 2951 2951 2951 2952 2951
2989 2989 2990 2989 2986 2988 2990 2991 2993 2991 2990 2991 2990 2989 2990 2988 2988 2990 2989 2988 2989 2990 2990 2987 2986 2989 2988 2987 2986 2982 2984 2987 2982 2981 2985 2985 2984 2986 2983 2981 2984 2985 2983 2983 2983 2981 2979 2975 2976 2979 2971 2965 2971 2972 2968 2970 2970 2968 2969 2972 2972 2966 2959 2957 2959 2959 2959 2956 2953 2955 2954 2950 2950 2951 2951 2952 2951 2950 2948 2945 2944 2944 2945 2944 2943 2943 2945 2945
2983 2983 2985 2983 2980 2981 2983 2983 2986 2985 2983 2985 2986 2985 2985 2985 2986 2987 2983 2981 2984 2985 2985 2984 2983 2982 2979 2978 2978 2978 2978 2977 2973 2973 2976 2976 2975 2977 2976 2974 2976 2976 2974 2974 2973 2971 2971 2968 2969 2971 2962 2956 2963 2963 2960 2964 2962 2956 2958 2960 2955 2950 2949 2949 2950 2949 2950 2949 2945 2943 2940 2939 2941 2945 2945 2944 2943 2941 2939 2939 2939 2939 2938 2937 2935 2937 2939 2939